[[{"header":{"parameterUnit":"m.s-1","parameterCategory":1,"la1":30.2991,"la2":30.254,"lo1":-89.0895,"lo2":-89.0444,"dy":0.0017,"dx":0.0017,"nx":28,"ny":28,"refTime":"2025-07-19T09:00:00:Z","depth":0,"parameterNumber":2,"parameterNumberName":"U-component_of_WINDS"},"data":[0,0,0,0,0,0,0,0,0,0,0,0,0,0,0,0,0,0,0,0,0,0,0,0,0,0,0,0,0,0,0,0,0,0,0,0,0,0,0,0,0,0,0,0,0,0,0,0,0,0,0,0,0,0,0,0,0,0,1.4842,1.4843,0,1.4968,1.497,1.4971,1.5008,1.5008,1.5007,1.5006,1.5134,1.5138,1.5142,0,0,0,0,0,0,0,0,0,0,0,0,0,1.4629,1.4633,1.4842,1.4843,1.4845,1.4968,1.497,1.4971,1.5008,1.5008,1.5007,1.5006,1.5133,1.5138,1.5142,0,0,0,0,0,0,0,0,0,0,0,0,0,1.4735,1.4634,1.4841,1.4878,1.4883,1.4968,1.497,1.4972,1.5008,1.5007,1.5006,1.5006,1.5131,1.5137,1.5143,1.52,0,0,1.5162,1.5164,0,0,0,0,0,0,0,0,1.4729,1.4743,1.4871,1.4876,1.4881,1.4971,1.4942,1.5048,1.5009,1.4961,1.5006,1.5005,1.5081,1.5091,1.5117,1.5206,1.5212,1.5162,1.5166,1.5168,1.517,0,0,0,0,0,0,0,1.4722,1.4737,1.4892,1.4873,1.4879,1.4887,1.4901,1.4962,1.5025,1.4965,1.4968,1.4982,1.5083,1.5111,1.512,1.5213,1.5162,1.5167,1.5171,1.5173,1.5354,1.5355,0,0,0,0,0,0,1.4708,1.4731,1.4888,1.4895,1.4801,1.4892,1.4908,1.4943,1.5024,1.5035,1.4983,1.4984,1.5101,1.5113,1.5125,1.5196,1.5168,1.5174,1.5177,1.5353,1.5354,1.5355,0,0,0,0,0,0,1.4704,1.4722,1.4883,1.4814,1.4835,1.4897,1.4937,1.4946,1.4974,1.5038,1.5049,1.5,1.5101,1.5116,1.5181,1.5201,1.5177,1.5182,1.5351,1.5353,1.5355,1.5338,0,0,0,0,0,0,1.4697,1.472,1.4743,1.4814,1.4839,1.4937,1.4938,1.495,1.4985,1.4986,1.5057,1.5067,1.5101,1.5171,1.5187,1.5208,1.5187,1.535,1.5352,1.5354,1.5337,1.5339,1.5341,0,0,0,0,0,1.469,1.4733,1.4744,1.4763,1.4869,1.4939,1.4952,1.4991,1.4986,1.5009,1.505,1.5065,1.5196,1.5178,1.5195,1.5219,1.5349,1.5351,1.5354,1.5337,1.5339,1.5341,0,0,0,0,0,0,1.4663,1.4744,1.4756,1.4825,1.4874,1.4945,1.4975,1.4992,1.5044,1.5044,1.5088,1.5104,1.5165,1.5199,1.5177,1.5277,1.5273,1.5279,1.5253,1.5256,1.5258,1.5248,1.5192,0,0,0,0,0,1.4665,1.4715,1.4783,1.4836,1.4861,1.4913,1.4945,1.497,1.5023,1.5045,1.509,1.514,1.5193,1.5226,1.5278,1.5342,1.5357,1.5367,1.5369,1.537,1.5375,1.541,1.5414,1.5364,1.5364,1.5364,0,0,1.4669,1.472,1.4749,1.4832,1.4874,1.4924,1.4931,1.4984,1.5021,1.5053,1.5116,1.5151,1.521,1.5274,1.5305,1.5304,1.5392,1.5373,1.5374,1.5378,1.5413,1.5417,1.5422,1.5366,1.5366,1.5365,0,0,1.4703,1.4747,1.4796,1.4837,1.49,1.4935,1.4946,1.5014,1.5038,1.5103,1.5127,1.5171,1.5261,1.5301,1.5334,1.5381,1.5396,1.5396,1.5406,1.5439,1.5443,1.5447,1.5463,1.5468,1.5401,1.5401,1.5401,0,1.4701,1.4778,1.4819,1.4871,1.4906,1.4936,1.4985,1.5023,1.5099,1.5122,1.5121,1.5233,1.5275,1.5348,1.5359,1.5385,1.5398,1.5389,1.544,1.5444,1.5448,1.5463,1.5469,1.5401,1.5401,1.5401,1.5401,0,1.4772,1.4825,1.4857,1.493,1.4968,1.5018,1.5065,1.51,1.5121,1.5155,1.5219,1.527,1.5332,1.5352,1.5373,1.5428,1.5425,1.5431,1.5427,1.5451,1.5467,1.5473,1.54,1.54,1.54,1.54,0,0,1.4793,1.4887,1.4898,1.4931,1.5001,1.5043,1.5093,1.5154,1.5182,1.5233,1.5276,1.535,1.5355,1.5392,1.5418,1.5447,1.548,1.5449,1.5451,1.5452,1.5541,1.5536,1.5543,1.549,1.5492,1.5493,1.5536,0,1.4835,1.4928,1.4965,1.504,1.5088,1.5117,1.5161,1.5208,1.5241,1.5286,1.5322,1.5374,1.5378,1.54,1.543,1.5469,1.5498,1.5467,1.5529,1.5531,1.5513,1.5551,1.5546,1.5585,1.5542,1.5543,1.5544,0,1.4898,1.4949,1.5029,1.5092,1.5114,1.5153,1.5211,1.5254,1.5307,1.5329,1.5369,1.5393,1.5446,1.5438,1.5511,1.5488,1.5516,1.5539,1.5541,1.5548,1.5539,1.5558,1.5598,1.5603,1.5554,1.5553,1.5553,0,1.4904,1.4993,1.5052,1.5079,1.5155,1.5181,1.5214,1.5267,1.53,1.5351,1.5372,1.5428,1.5458,1.55,1.5538,1.5529,1.5606,1.5602,1.5625,1.5624,1.564,1.5638,1.5684,1.5658,1.5658,1.5658,1.5658,0,1.4947,1.4994,1.5056,1.5092,1.5145,1.5186,1.5237,1.5272,1.5318,1.536,1.5388,1.5427,1.5475,1.552,1.5549,1.5604,1.5618,1.5636,1.5643,1.5633,1.5631,1.5652,1.565,1.5659,1.5659,1.5659,1.5659,0,1.4963,1.5006,1.5072,1.5138,1.5156,1.5192,1.5248,1.5283,1.5317,1.537,1.5385,1.5437,1.5491,1.5533,1.5603,1.5623,1.568,1.5688,1.5662,1.5666,1.5686,1.5683,1.5746,1.5756,1.5724,1.5724,1.5724,0,1.4987,1.5025,1.5094,1.5125,1.5158,1.5207,1.5241,1.5282,1.5317,1.538,1.5407,1.5463,1.551,1.5594,1.5638,1.5691,1.57,1.5719,1.5708,1.5697,1.5699,1.5697,1.57,1.572,1.572,1.572,1.572,0,1.5026,1.5045,1.5094,1.515,1.5191,1.5237,1.5283,1.5306,1.5356,1.5393,1.5448,1.5484,1.5555,1.561,1.5667,1.57,1.5718,1.5723,1.5731,1.5721,1.5704,1.5712,1.5665,1.5721,1.5721,1.5721,1.5721,1.5721,1.5047,1.508,1.5135,1.5188,1.5227,1.5269,1.5306,1.5344,1.5391,1.5452,1.5473,1.553,1.5581,1.566,1.5693,1.5737,1.5738,1.5749,1.5752,1.5754,1.5753,1.5697,1.5747,1.5747,1.5747,1.5748,1.5748,0,1.5086,1.5122,1.517,1.5235,1.5276,1.529,1.5341,1.5375,1.5424,1.5471,1.5516,1.5579,1.5631,1.5679,1.5733,1.5759,1.5769,1.5772,1.577,1.5777,1.5749,1.5737,1.5763,1.5763,1.5763,1.5763,1.5763,1.5763,1.5111,1.5169,1.5194,1.527,1.5306,1.5362,1.539,1.5429,1.5466,1.5535,1.5579,1.561,1.5656,1.5714,1.5762,1.5775,1.5793,1.5794,1.5808,1.5781,1.5779,1.5777,1.5766,1.5798,1.5798,1.5833,1.5833,1.5833]},{"header":{"parameterUnit":"m.s-1","parameterCategory":1,"la1":30.2991,"la2":30.254,"lo1":-89.0895,"lo2":-89.0444,"dy":0.0017,"dx":0.0017,"nx":28,"ny":28,"refTime":"2025-07-19T09:00:00:Z","depth":0,"parameterNumber":3,"parameterNumberName":"V-component_of_WINDS"},"data":[0,0,0,0,0,0,0,0,0,0,0,0,0,0,0,0,0,0,0,0,0,0,0,0,0,0,0,0,0,0,0,0,0,0,0,0,0,0,0,0,0,0,0,0,0,0,0,0,0,0,0,0,0,0,0,0,0,0,5.5643,5.5642,0,5.5607,5.5607,5.5607,5.5519,5.5518,5.5516,5.5514,5.548,5.5481,5.5482,0,0,0,0,0,0,0,0,0,0,0,0,0,5.5637,5.5637,5.5643,5.5642,5.5642,5.5607,5.5607,5.5606,5.552,5.5518,5.5515,5.5513,5.548,5.5481,5.5482,0,0,0,0,0,0,0,0,0,0,0,0,0,5.5624,5.5637,5.5643,5.5594,5.559,5.5607,5.5607,5.5606,5.552,5.5517,5.5515,5.5512,5.5479,5.5481,5.5482,5.5544,0,0,5.5485,5.5486,0,0,0,0,0,0,0,0,5.5625,5.5625,5.5602,5.5598,5.5592,5.5565,5.5592,5.5586,5.5521,5.5547,5.5514,5.5511,5.5511,5.5509,5.5509,5.5543,5.5541,5.5486,5.5486,5.5487,5.5487,0,0,0,0,0,0,0,5.5626,5.5626,5.5629,5.5602,5.5596,5.5575,5.557,5.5591,5.5545,5.5544,5.5538,5.5535,5.5508,5.5508,5.5507,5.5541,5.5486,5.5487,5.5487,5.5488,5.5624,5.5627,0,0,0,0,0,0,5.5634,5.5627,5.563,5.5628,5.5602,5.5577,5.5572,5.5577,5.5544,5.5536,5.5537,5.5531,5.5507,5.5506,5.5506,5.5576,5.5487,5.5488,5.5489,5.5621,5.5624,5.5628,0,0,0,0,0,0,5.5634,5.5635,5.5631,5.5625,5.5623,5.558,5.5586,5.5577,5.5577,5.5539,5.553,5.5546,5.5505,5.5504,5.5535,5.5574,5.5488,5.549,5.5618,5.5622,5.5626,5.5718,0,0,0,0,0,0,5.5634,5.5635,5.5658,5.5627,5.5624,5.5661,5.5589,5.5579,5.5579,5.5571,5.5544,5.5537,5.5502,5.5534,5.5536,5.5574,5.5491,5.5614,5.562,5.5625,5.5711,5.5725,5.5736,0,0,0,0,0,5.5634,5.5686,5.566,5.5661,5.5652,5.5663,5.5662,5.562,5.5583,5.5606,5.5581,5.5538,5.5569,5.5538,5.554,5.5578,5.5611,5.5618,5.5624,5.5705,5.5722,5.5736,0,0,0,0,0,0,5.5724,5.5681,5.5651,5.5695,5.5683,5.5649,5.5676,5.5639,5.5639,5.5631,5.558,5.5574,5.5613,5.5598,5.5564,5.5637,5.5583,5.5591,5.5644,5.566,5.5672,5.5674,5.5492,0,0,0,0,0,5.5749,5.5761,5.5723,5.5765,5.5761,5.572,5.5723,5.5692,5.5679,5.5673,5.5651,5.564,5.5647,5.5653,5.5657,5.5709,5.5702,5.5736,5.5749,5.576,5.5766,5.5792,5.5807,5.5649,5.5649,5.5649,0,0,5.58,5.5778,5.579,5.5783,5.577,5.5785,5.5716,5.5735,5.5745,5.5676,5.5704,5.5687,5.5672,5.5713,5.573,5.5703,5.5808,5.5768,5.5777,5.5777,5.58,5.5815,5.5829,5.5653,5.5653,5.5652,0,0,5.5901,5.5886,5.5919,5.5908,5.5889,5.5861,5.587,5.5841,5.5826,5.5853,5.5802,5.5814,5.5827,5.5818,5.5815,5.5913,5.5873,5.5916,5.5981,5.6007,5.6019,5.603,5.6064,5.6077,5.5923,5.5923,5.5923,0,5.5968,5.5987,5.5941,5.5962,5.596,5.5898,5.5931,5.5923,5.5908,5.5908,5.5877,5.5892,5.5877,5.5915,5.5939,5.5939,5.5947,5.5918,5.6021,5.6032,5.6041,5.6073,5.6086,5.5928,5.5927,5.5927,5.5926,0,5.6069,5.6083,5.6112,5.6097,5.6099,5.6127,5.6085,5.6092,5.6061,5.6037,5.6065,5.6045,5.6044,5.6051,5.6021,5.6085,5.6068,5.603,5.5975,5.6062,5.6091,5.6103,5.5935,5.5934,5.5932,5.5931,0,0,5.6225,5.6185,5.6196,5.6188,5.6164,5.6174,5.6198,5.6197,5.6204,5.6196,5.6215,5.6227,5.6192,5.6189,5.6157,5.618,5.6258,5.6139,5.6138,5.6161,5.6326,5.6354,5.6369,5.6232,5.6234,5.6235,5.6327,0,5.6319,5.6358,5.6317,5.6364,5.6376,5.6318,5.6339,5.6327,5.6305,5.6313,5.6289,5.6298,5.6251,5.6248,5.6268,5.6244,5.629,5.6237,5.6249,5.625,5.6254,5.6384,5.6414,5.6502,5.6338,5.634,5.6342,0,5.6434,5.643,5.6478,5.645,5.6454,5.6473,5.6468,5.6476,5.6461,5.6443,5.644,5.6402,5.6424,5.6371,5.6401,5.6366,5.6369,5.6358,5.636,5.6359,5.63,5.6386,5.6529,5.6542,5.6359,5.6358,5.6357,0,5.6542,5.6549,5.6578,5.6574,5.6542,5.6557,5.6545,5.6526,5.6528,5.6524,5.6524,5.6523,5.6523,5.6523,5.6486,5.6451,5.652,5.6465,5.6506,5.6507,5.6523,5.6522,5.6667,5.6527,5.6526,5.6526,5.6526,0,5.6651,5.6683,5.6626,5.6645,5.6678,5.6632,5.6666,5.6648,5.6632,5.6646,5.6596,5.661,5.656,5.6569,5.654,5.6569,5.657,5.6556,5.6548,5.656,5.6562,5.6561,5.6553,5.6529,5.6529,5.6528,5.6527,0,5.6778,5.6741,5.6769,5.6736,5.6729,5.6755,5.6727,5.6742,5.6717,5.6735,5.6737,5.6698,5.6706,5.6669,5.667,5.6651,5.6694,5.6676,5.6699,5.6693,5.6737,5.6733,5.6885,5.6903,5.6752,5.6754,5.6755,0,5.6849,5.6872,5.6841,5.6846,5.6836,5.6845,5.6846,5.6801,5.6804,5.6789,5.6806,5.681,5.681,5.6826,5.6798,5.6799,5.678,5.6833,5.678,5.6791,5.678,5.6778,5.678,5.6844,5.6846,5.6848,5.6849,0,5.698,5.696,5.6963,5.696,5.6962,5.6958,5.695,5.6957,5.6909,5.6915,5.6922,5.6922,5.6923,5.6928,5.6923,5.691,5.6872,5.6866,5.6875,5.6888,5.69,5.6893,5.6729,5.6862,5.6861,5.686,5.6859,5.6859,5.708,5.7097,5.7078,5.7083,5.7072,5.7066,5.7078,5.7055,5.7059,5.7056,5.703,5.7042,5.7026,5.7015,5.7007,5.7016,5.699,5.7005,5.7008,5.7012,5.7019,5.6899,5.7015,5.7014,5.7014,5.7013,5.7013,0,5.7207,5.7192,5.7197,5.7187,5.7191,5.7153,5.7143,5.7149,5.716,5.7148,5.7149,5.7157,5.7161,5.7133,5.7133,5.7146,5.7128,5.7147,5.7145,5.7143,5.7042,5.7033,5.7161,5.7161,5.7161,5.7161,5.7161,5.7161,5.7274,5.73,5.7279,5.73,5.7285,5.7295,5.7292,5.7287,5.7276,5.7287,5.729,5.7272,5.7253,5.7252,5.7254,5.7245,5.7248,5.7273,5.7259,5.7165,5.715,5.7136,5.7128,5.7274,5.7274,5.7359,5.7359,5.736]}]]